When you browse on this site, cookies collect data to enhance your experience and personalize the content and advertising you see.
Visit our Privacy Policy to learn more. By continuing to use the site, you agree to this use of cookies and data.
  • In Latvia
  • List of Countries
  • For 7 days
  • Water Temperature
  • Satellite Maps
  • Weather Map
  • Weather Widgets
  • user-avatar
    Login

    Hourly Weather Innsbruck

    Today, 18 February, Monday

    Time Temperature Precipitation Wind Pressure Humidity
    00:00 -6°C° 0 mm 2 mps 597 mmHg 42%
    01:00 -7°C° 0 mm 3 mps 597 mmHg 38%
    02:00 -6°C° 0 mm 2 mps 597 mmHg 38%
    03:00 -6°C° 0 mm 2 mps 596 mmHg 38%
    04:00 -7°C° 0 mm 2 mps 596 mmHg 38%
    05:00 -7°C° 0 mm 2 mps 596 mmHg 37%
    06:00 -7°C° 0 mm 2 mps 596 mmHg 37%
    07:00 -7°C° 0 mm 3 mps 596 mmHg 34%
    08:00 -4°C° 0 mm 2 mps 597 mmHg 44%
    09:00 -2°C° 0 mm 2 mps 597 mmHg 53%
    10:00 -1°C° 0 mm 2 mps 597 mmHg 62%
    11:00 +1°C° 0 mm 2 mps 597 mmHg 71%
    12:00 +2°C° 0 mm 2 mps 597 mmHg 80%
    13:00 +2°C° 0 mm 2 mps 597 mmHg 89%
    14:00 +2°C° 0 mm 2 mps 597 mmHg 87%
    15:00 +2°C° 0 mm 2 mps 597 mmHg 85%
    16:00 +2°C° 0 mm 2 mps 596 mmHg 83%
    17:00 -1°C° 0 mm 2 mps 596 mmHg 76%
    18:00 -3°C° 0 mm 2 mps 595 mmHg 68%
    19:00 -6°C° 0 mm 3 mps 594 mmHg 61%
    20:00 -6°C° 0 mm 3 mps 594 mmHg 58%
    21:00 -6°C° 0 mm 3 mps 594 mmHg 56%
    22:00 -7°C° 0 mm 3 mps 594 mmHg 54%
    23:00 -6°C° 0 mm 2 mps 594 mmHg 53%

    Tomorrow, 19 February, Tuesday

    Time Temperature Precipitation Wind Pressure Humidity
    00:00 -6°C° 0 mm 2 mps 594 mmHg 53%
    01:00 -6°C° 0 mm 2 mps 594 mmHg 52%
    02:00 -6°C° 0 mm 2 mps 594 mmHg 52%
    03:00 -7°C° 0 mm 2 mps 594 mmHg 52%
    04:00 -7°C° 0 mm 2 mps 594 mmHg 51%
    05:00 -6°C° 0 mm 1 mps 594 mmHg 52%
    06:00 -6°C° 0 mm 1 mps 594 mmHg 53%
    07:00 -7°C° 0 mm 1 mps 594 mmHg 54%
    08:00 -4°C° 0 mm 1 mps 594 mmHg 60%
    09:00 -2°C° 0 mm 1 mps 595 mmHg 66%
    10:00 -1°C° 0 mm 0 mps 596 mmHg 71%
    11:00 -1°C° 0 mm 0 mps 596 mmHg 74%
    12:00 +1°C° 0 mm 1 mps 596 mmHg 76%
    13:00 +1°C° 0 mm 1 mps 596 mmHg 79%
    14:00 +1°C° 0 mm 1 mps 596 mmHg 81%
    15:00 +1°C° 0 mm 1 mps 595 mmHg 83%
    16:00 0°C° 0 mm 1 mps 595 mmHg 85%
    17:00 -1°C° 0 mm 1 mps 595 mmHg 87%
    18:00 -3°C° 0 mm 1 mps 595 mmHg 89%
    19:00 -6°C° 0 mm 1 mps 594 mmHg 90%
    20:00 -6°C° 0 mm 1 mps 594 mmHg 90%
    21:00 -6°C° 0 mm 1 mps 594 mmHg 89%
    22:00 -7°C° 0 mm 1 mps 595 mmHg 88%
    23:00 -7°C° 0 mm 1 mps 595 mmHg 85%

    Day after tomorrow, 20 February, Wednesday

    Time Temperature Precipitation Wind Pressure Humidity
    00:00 -7°C° 0 mm 1 mps 595 mmHg 82%
    01:00 -7°C° 0 mm 1 mps 595 mmHg 79%
    02:00 -7°C° 0 mm 1 mps 595 mmHg 75%
    03:00 -8°C° 0 mm 1 mps 595 mmHg 71%
    04:00 -8°C° 0 mm 1 mps 594 mmHg 67%
    05:00 -8°C° 0 mm 1 mps 595 mmHg 66%
    06:00 -8°C° 0 mm 1 mps 595 mmHg 64%
    07:00 -8°C° 0 mm 1 mps 595 mmHg 63%
    08:00 -6°C° 0 mm 1 mps 596 mmHg 65%
    09:00 -3°C° 0 mm 1 mps 597 mmHg 67%
    10:00 -2°C° 0 mm 0 mps 598 mmHg 70%
    11:00 -1°C° 0 mm 0 mps 598 mmHg 72%
    12:00 -1°C° 0 mm 0 mps 598 mmHg 74%
    13:00 0°C° 0 mm 0 mps 598 mmHg 76%
    14:00 0°C° 0 mm 0 mps 598 mmHg 78%
    15:00 0°C° 0 mm 0 mps 598 mmHg 81%
    16:00 +1°C° 0 mm 1 mps 598 mmHg 83%
    17:00 -1°C° 0 mm 1 mps 597 mmHg 84%
    18:00 -2°C° 0 mm 1 mps 597 mmHg 86%
    19:00 -4°C° 0 mm 1 mps 597 mmHg 87%
    20:00 -4°C° 0 mm 1 mps 597 mmHg 86%
    21:00 -4°C° 0 mm 1 mps 598 mmHg 84%
    22:00 -4°C° 0 mm 1 mps 598 mmHg 83%
    23:00 -4°C° 0 mm 1 mps 598 mmHg 80%

    21 February, Thursday

    Time Temperature Precipitation Wind Pressure Humidity
    00:00 -4°C° 0 mm 1 mps 598 mmHg 76%
    01:00 -4°C° 0 mm 1 mps 598 mmHg 73%
    02:00 -4°C° 0 mm 1 mps 598 mmHg 69%
    03:00 -4°C° 0 mm 1 mps 598 mmHg 66%
    04:00 -4°C° 0 mm 1 mps 598 mmHg 62%
    05:00 -4°C° 0 mm 1 mps 598 mmHg 60%
    06:00 -4°C° 0 mm 1 mps 598 mmHg 58%
    07:00 -4°C° 0 mm 1 mps 599 mmHg 56%
    08:00 -2°C° 0 mm 1 mps 600 mmHg 59%
    09:00 -1°C° 0 mm 1 mps 600 mmHg 63%
    10:00 +1°C° 0 mm 1 mps 601 mmHg 66%
    11:00 +1°C° 0 mm 1 mps 601 mmHg 68%
    12:00 +2°C° 0 mm 1 mps 602 mmHg 70%
    13:00 +3°C° 0 mm 1 mps 602 mmHg 72%
    14:00 +2°C° 0 mm 1 mps 602 mmHg 74%
    15:00 +2°C° 0 mm 1 mps 601 mmHg 75%
    16:00 +2°C° 0 mm 1 mps 601 mmHg 77%
    17:00 0°C° 0 mm 1 mps 601 mmHg 75%
    18:00 -1°C° 0 mm 1 mps 601 mmHg 74%
    19:00 -2°C° 0 mm 1 mps 601 mmHg 72%
    20:00 -2°C° 0 mm 1 mps 601 mmHg 70%
    21:00 -3°C° 0 mm 1 mps 602 mmHg 67%
    22:00 -3°C° 0 mm 1 mps 602 mmHg 64%
    23:00 -3°C° 0 mm 1 mps 602 mmHg 65%

    22 February, Friday

    Time Temperature Precipitation Wind Pressure Humidity
    00:00 -3°C° 0 mm 1 mps 602 mmHg 65%
    01:00 -3°C° 0 mm 1 mps 602 mmHg 65%
    02:00 -3°C° 0 mm 1 mps 602 mmHg 65%
    03:00 -3°C° 0 mm 1 mps 602 mmHg 65%
    04:00 -5°C° 0 mm 2 mps 602 mmHg 65%
    05:00 -3°C° 0 mm 1 mps 602 mmHg 65%
    06:00 -3°C° 0 mm 1 mps 603 mmHg 65%
    07:00 -3°C° 0 mm 1 mps 603 mmHg 65%
    08:00 -1°C° 0 mm 1 mps 604 mmHg 68%
    09:00 0°C° 0 mm 1 mps 604 mmHg 70%
    10:00 +2°C° 0 mm 1 mps 605 mmHg 73%
    11:00 +1°C° 0 mm 2 mps 605 mmHg 75%
    12:00 +2°C° 0 mm 2 mps 606 mmHg 77%
    13:00 +3°C° 0 mm 2 mps 606 mmHg 79%
    14:00 +2°C° 0 mm 2 mps 606 mmHg 82%
    15:00 +2°C° 0 mm 2 mps 605 mmHg 84%
    16:00 +1°C° 0 mm 2 mps 605 mmHg 87%
    17:00 -1°C° 0 mm 2 mps 605 mmHg 87%
    18:00 0°C° 0 mm 1 mps 604 mmHg 87%
    19:00 -1°C° 0 mm 1 mps 604 mmHg 87%
    20:00 -1°C° 0 mm 1 mps 605 mmHg 86%
    21:00 -1°C° 0 mm 1 mps 605 mmHg 85%
    22:00 -1°C° 0 mm 1 mps 605 mmHg 84%
    23:00 -1°C° 0 mm 1 mps 605 mmHg 83%

    23 February, Saturday

    Time Temperature Precipitation Wind Pressure Humidity
    00:00 -1°C° 0 mm 1 mps 605 mmHg 81%
    01:00 -1°C° 0 mm 1 mps 605 mmHg 80%
    02:00 -1°C° 0 mm 1 mps 605 mmHg 78%
    03:00 -1°C° 0 mm 1 mps 605 mmHg 75%
    04:00 -1°C° 0 mm 1 mps 605 mmHg 73%
    05:00 -1°C° 0 mm 1 mps 605 mmHg 71%
    06:00 -1°C° 0 mm 1 mps 605 mmHg 68%
    07:00 -1°C° 0 mm 1 mps 605 mmHg 66%
    08:00 0°C° 0 mm 1 mps 606 mmHg 67%
    09:00 +2°C° 0 mm 1 mps 606 mmHg 68%
    10:00 +4°C° 0 mm 1 mps 607 mmHg 68%
    11:00 +5°C° 0 mm 1 mps 607 mmHg 67%
    12:00 +5°C° 0 mm 1 mps 608 mmHg 66%
    13:00 +6°C° 0 mm 1 mps 608 mmHg 65%
    14:00 +6°C° 0 mm 1 mps 607 mmHg 68%
    15:00 +5°C° 0 mm 1 mps 607 mmHg 72%
    16:00 +5°C° 0 mm 1 mps 607 mmHg 75%
    17:00 +4°C° 0 mm 1 mps 606 mmHg 72%
    18:00 +2°C° 0 mm 1 mps 606 mmHg 69%
    19:00 +1°C° 0 mm 1 mps 606 mmHg 67%
    20:00 +1°C° 0 mm 1 mps 606 mmHg 64%
    21:00 +1°C° 0 mm 1 mps 606 mmHg 61%
    22:00 +1°C° 0 mm 1 mps 606 mmHg 59%
    23:00 +1°C° 0 mm 1 mps 606 mmHg 58%
    Show more